Volver al catálogo

CZ-6A DEB

ActivoPO
NORAD 60688·DEBRIS·🇨🇳 China

Lanzado Aug 6, 2024 desde Taiyuan Satellite Launch Center

Loading…

Próximos Pases (próximas 24 horas)

TLE

ActualizadoSource: Space-Track

Época: Sep 14, 2026, 17:37 UTC

1 60688U 24140CR  26257.73447524  .00000839  00000-0  34523-3 0  9997
2 60688  88.9961 263.9146 0027401 264.8348  94.9719 14.25931637109135

Sigue CZ-6A DEB en tiempo real con AllMySat

Download on the App Store